Time,TemperatureF,DewpointF,PressureIn,WindDirection,WindDirectionDegrees,WindSpeedMPH,WindSpeedGustMPH,Humidity,HourlyPrecipIn,Conditions,Clouds,dailyrainin,SoftwareType,DateUTC
2013-07-26 00:00:00,79.0,73.0,30.45,South,170,23.0,-999.0,83,-99.99,,,-99.99,,2013-07-26 00:00:00,
2013-07-26 00:43:00,79.0,73.0,30.45,South,170,23.0,-999.0,83,-99.99,,,-99.99,,2013-07-26 00:43:00,
2013-07-26 00:52:00,79.0,73.0,30.45,South,170,23.0,-999.0,83,-99.99,,,-99.99,,2013-07-26 00:52:00,
2013-07-26 03:00:00,79.0,72.0,30.47,South,170,15.0,-999.0,78,-99.99,,,-99.99,,2013-07-26 03:00:00,
2013-07-26 03:32:00,79.0,72.0,30.47,South,170,15.0,-999.0,78,-99.99,,,-99.99,,2013-07-26 03:32:00,
2013-07-26 03:43:00,79.0,72.0,30.47,South,170,15.0,-999.0,78,-99.99,,,-99.99,,2013-07-26 03:43:00,
2013-07-26 03:53:00,79.0,72.0,30.47,South,170,15.0,-999.0,78,-99.99,,,-99.99,,2013-07-26 03:53:00,
2013-07-26 04:00:00,77.0,75.0,30.47,South,170,10.0,-999.0,94,-99.99,,,-99.99,,2013-07-26 04:00:00,
2013-07-26 04:32:00,77.0,75.0,30.47,South,170,10.0,-999.0,94,-99.99,,,-99.99,,2013-07-26 04:32:00,
2013-07-26 04:42:00,77.0,75.0,30.47,South,170,10.0,-999.0,94,-99.99,,,-99.99,,2013-07-26 04:42:00,
2013-07-26 04:53:00,77.0,75.0,30.47,South,170,10.0,-999.0,94,-99.99,,,-99.99,,2013-07-26 04:53:00,
2013-07-26 05:00:00,77.0,75.0,30.47,South,170,10.0,-999.0,94,-99.99,,,-99.99,,2013-07-26 05:00:00,
2013-07-26 05:32:00,77.0,75.0,30.47,South,170,10.0,-999.0,94,-99.99,,,-99.99,,2013-07-26 05:32:00,
2013-07-26 05:43:00,77.0,75.0,30.47,South,170,10.0,-999.0,94,-99.99,,,-99.99,,2013-07-26 05:43:00,
2013-07-26 05:52:00,77.0,75.0,30.47,South,170,10.0,-999.0,94,-99.99,,,-99.99,,2013-07-26 05:52:00,
2013-07-26 10:00:00,80.0,72.0,30.48,South,190,5.0,-999.0,76,-99.99,,,-99.99,,2013-07-26 10:00:00,
2013-07-26 10:32:00,80.0,72.0,30.48,South,190,5.0,-999.0,76,-99.99,,,-99.99,,2013-07-26 10:32:00,
2013-07-26 10:42:00,80.0,72.0,30.48,South,190,5.0,-999.0,76,-99.99,,,-99.99,,2013-07-26 10:42:00,
2013-07-26 10:52:00,80.0,72.0,30.48,South,190,5.0,-999.0,76,-99.99,,,-99.99,,2013-07-26 10:52:00,
2013-07-26 13:00:00,82.0,75.0,30.49,South,180,6.0,-999.0,78,-99.99,,,-99.99,,2013-07-26 13:00:00,
2013-07-26 13:32:00,82.0,75.0,30.49,South,180,6.0,-999.0,78,-99.99,,,-99.99,,2013-07-26 13:32:00,
2013-07-26 13:43:00,82.0,75.0,30.49,South,180,6.0,-999.0,78,-99.99,,,-99.99,,2013-07-26 13:43:00,
2013-07-26 13:53:00,82.0,75.0,30.49,South,180,6.0,-999.0,78,-99.99,,,-99.99,,2013-07-26 13:53:00,
2013-07-26 14:00:00,82.0,75.0,30.50,South,170,10.0,-999.0,78,-99.99,,,-99.99,,2013-07-26 14:00:00,
2013-07-26 14:43:00,82.0,75.0,30.50,South,170,10.0,-999.0,78,-99.99,,,-99.99,,2013-07-26 14:43:00,
2013-07-26 14:53:00,82.0,75.0,30.50,South,170,10.0,-999.0,78,-99.99,,,-99.99,,2013-07-26 14:53:00,
2013-07-26 16:00:00,84.0,75.0,30.47,North,350,2.0,-999.0,74,-99.99,,,-99.99,,2013-07-26 16:00:00,
2013-07-26 16:43:00,84.0,75.0,30.47,North,350,2.0,-999.0,74,-99.99,,,-99.99,,2013-07-26 16:43:00,
2013-07-26 16:53:00,84.0,75.0,30.47,North,350,2.0,-999.0,74,-99.99,,,-99.99,,2013-07-26 16:53:00,
2013-07-26 17:00:00,86.0,75.0,30.46,North,350,2.0,-999.0,70,-99.99,,,-99.99,,2013-07-26 17:00:00,
2013-07-26 17:52:00,86.0,75.0,30.46,North,350,2.0,-999.0,70,-99.99,,,-99.99,,2013-07-26 17:52:00,